Find OneWeb SL0304

NORAD ID: 49092 Int'l Des: 2021-075 Owner: ONEWEBN Country: UK Constellation: oneweb operational
LEOCIRCULARPOLARONEWEB_TYPE

現在のビュー

3D地球を読み込み中...

About OneWeb SL0304

OneWeb SL0304 (NORAD 49092) is a oneweb constellation satellite launched Aug 21, 2021 by ONEWEBN of UK. It operates in LEO, CIRCULAR, POLAR, ONEWEB_TYPE orbit with a mass of 148.00 kg.

OneWeb SL0304について

説明を読み込み中...

次回通過

Passes for default location (London). Set your location on the main map for personalized predictions.

高度履歴

Loading altitude history...

軌道要素

1 49092U 21075T 26193.53101745 .00000048 00000-0 89618-4 0 9994
2 49092 87.9122 0.8263 0001732 74.2013 285.9310 13.17648031236917
Epoch: Jul 12, 2026 • Age: 12 hours

現在のステータス

高度 1196.2 km
遠地点 / 近地点 N/A
速度 7.26 km/s
衛星直下点 6.99°N, 118.75°W
打ち上げ日 Aug 21, 2021
運用期間 4.8 years
タイプ internet

技術仕様

分類 Payload
質量 148.00 kg
乾燥質量 140.00 kg
総質量 148.00 kg
長さ 1.30 m
直径 1.00 m
スパン 5.00 m
形状 Trapezoid+2 pan
製造者 ONEWUS
バスタイプ ARROW
フェーズステータス In Orbit
所有者/国 ONEWEBN/UK

Most Searched